Weather in Dubki

Russia / Republic of Dagestan     43°01′15″N   46°50′14″E
temp.,
°C
wind,
m/s
gust,
m/s
humid.,
%
clouds,
%
prec.,
mm/h
press.,
hPa
HPBL,
m
6 march, sat
sat600:00+2ssw22370 0.0 102022
03:00+2sw22370 0.0 102022
06:00+2ssw22320 0.0 102022
09:00+7ssw12320 0.0 101899
12:00+11e112423 0.0 1016441
15:00+12e222811 0.0 1014640
18:00+6ssw22430 0.0 101422
21:00+6sw333745 0.0 101326
7 march, sun
sun700:00+5sw333596 0.0 101125
03:00+5w583998 0.0 1012206
06:00+1wnw71293100 0.2 1016766
09:00−2wnw81391100 3.9 10201038
12:00−3nw81187100 1.3 1021990
15:00−2nw5770100 2.0 10211029
18:00−5wnw227177 0.1 1022117
21:00−5sse127475 0.1 102392
8 march, mon
mon800:00−5s227417 0.0 102354
03:00−4sse11739 0.0 102327
06:00−5se11770 0.0 102226
09:00−1e22650 0.0 1021376
12:000ene336555 0.0 1018726
15:000ene227077 0.1 1016599
18:00−2ne1188100 0.0 1016115
21:00−3nw2496100 0.6 1017300
9 march, tue
tue900:00−3wnw3594100 0.9 1017274
03:00−4nw2495100 1.3 1016247
06:00−4sw119392 0.1 101754
09:00−1e117595 0.2 1017461
12:00+1ene227191 0.1 1016711
15:00+1ene226991 0.1 1015726
18:00−1ese118176 0.1 101753
21:00−1wsw118080 0.1 101922
10 march, wed
wed1000:00−1w2285100 0.1 101962
03:00−3wnw2395100 0.4 1021160
06:00−3nw2397100 1.7 1022189
09:00−3nw238599 2.9 1022413
12:00−1n3490100 0.7 1022500
15:00−2nne3392100 2.8 1021399
18:00−4ene2396100 1.5 1021267
21:00−6ese3495100 2.2 1022286